Regional Weather Roundup
Issued by NWS

Home | Current Version | Previous Version | Graphics & Text | Print | Product List | Glossary On
Versions: 1 2 3 4 5 6 7 8 9 10 11 12 13 14 15 16 17 18 19 20 21 22 23 24 25 26 27 28 29 30 31 32 33 34 35 36 37 38 39 40 41 42 43 44 45 46 47 48 49 50
197
ASUS43 KMKX 111410
RWRWI

WISCONSIN REGIONAL WEATHER ROUNDUP
NATIONAL WEATHER SERVICE MILWAUKEE/SULLIVAN WI
800 AM CST MON DEC 11 2017

NOTE: "FAIR" INDICATES FEW OR NO CLOUDS BELOW 12,000 FEET WITH NO
SIGNIFICANT WEATHER AND/OR OBSTRUCTIONS TO VISIBILITY.

WIZ001-002-006>008-014>016-023>028-111500-
NORTHWEST WISCONSIN

CITY           SKY/WX    TMP DP  RH WIND       PRES   REMARKS
SUPERIOR ARPT  CLOUDY    22  21  97 CALM      29.73S
ASHLAND        CLOUDY    22  19  89 S3        29.74F
HAYWARD        CLOUDY    22  18  85 S3        29.71F
SIREN          CLOUDY    25  23  91 S6        29.72S WCI  18
CUMBERLAND     CLOUDY    23  23 100 S7        29.72R FOG     WCI  15
RICE LAKE      CLOUDY    24  23  96 CALM      29.75R FOG
CHETEK         CLOUDY    24  22  94 SE3       29.74S
LADYSMITH      CLOUDY    24  22  94 SE5       29.75F WCI  18
EAU CLAIRE     CLOUDY    24  22  91 SE5       29.73F FOG     WCI  18
MENOMONIE      PTCLDY    26  24  93 E3        29.73F FOG
NEW RICHMOND   LGT SNOW  27  26  94 CALM      29.73R
OSCEOLA        LGT SNOW  27  27 100 CALM      29.76R
$$

WIZ003>005-009-010-017-018-111500-
NORTH CENTRAL WISCONSIN

CITY           SKY/WX    TMP DP  RH WIND       PRES   REMARKS
MANITOWISH WTR LGT SNOW  17  17 100 S7        29.72F WCI   8
ARBOR VITAE    LGT SNOW  20  18  93 S7        29.72F WCI  11
WOODRUFF       LGT SNOW  20  18  93 S7        29.72F WCI  11
RHINELANDER    CLOUDY    19  18  95 S8        29.75F FOG     WCI   9
EAGLE RIVER    LGT SNOW  17  14  87 S5        29.73F WCI  10
LAND O LAKES   LGT SNOW  17  15  90 S5        29.75F WCI  10
PHILLIPS       CLOUDY    20  19  98 SE6       29.72F WCI  12
TOMAHAWK       CLOUDY    19  17  93 CALM      29.76F FOG
MEDFORD        CLOUDY    20  19  94 SE7       29.73F FOG     WCI  11
MERRILL        CLOUDY    20  19  96 S3        29.78F FOG
$$

WIZ029-030-035-036-043>047-111500-
CENTRAL WISCONSIN

CITY           SKY/WX    TMP DP  RH WIND       PRES   REMARKS
WAUSAU         CLOUDY    20  19  96 SE9       29.77F FOG     WCI   9
MOSINEE        CLOUDY    21  21 100 S9        29.79F FOG     WCI  11
MARSHFIELD     CLOUDY    22  20  92 S9        29.74F FOG     WCI  12
STEVENS POINT  CLOUDY    20  20 100 S7        29.80F FOG     WCI  11
WAUPACA        CLOUDY    25  21  87 SE7       29.84F FOG     WCI  17
WAUTOMA        CLOUDY    23  20  88 S6        29.84F WCI  16
WISC RAPIDS    CLOUDY    23  20  88 S6        29.79F WCI  16
CAMP DOUGLAS   CLOUDY    25  21  86 SE8       29.77F WCI  16
$$

WIZ011>013-019>022-031-037>040-048>050-111500-
NORTHEAST WISCONSIN

CITY           SKY/WX    TMP DP  RH WIND       PRES   REMARKS
ANTIGO         CLOUDY    18  18  97 S8        29.78F FOG     WCI   8
SHAWANO        CLOUDY    22  19  87 SE3       29.85F
OCONTO         CLOUDY    22  19  88 S3        29.88F
STURGEON BAY   LGT SNOW  21  19  92 S8        29.89F FOG     WCI  11
GREEN BAY      CLOUDY    22  21  96 S10       29.87F WCI  11
MANITOWOC      MIX PCPN  23  20  88 S6        29.91S WCI  16
APPLETON       CLOUDY    21  18  86 S7        29.83F WCI  13
CLINTONVILLE   CLOUDY    21  19  93 SE6       29.84F FOG     WCI  14
OSHKOSH        CLOUDY    23  20  88 S8        29.85F FOG     WCI  14
$$

WIZ032>034-041-042-053>061-111500-
SOUTHWEST WISCONSIN

CITY           SKY/WX    TMP DP  RH WIND       PRES   REMARKS
LA CROSSE      CLOUDY    28  23  81 S6        29.77F WCI  22
SPARTA         PTCLDY    25  22  89 CALM      29.78F
VIROQUA        CLOUDY    23  23 100 SE9       29.75F WCI  13
BOSCOBEL       PTCLDY    25  21  85 CALM      29.80F
PRAIRIE DU CHI PTCLDY    28  22  78 E6        29.78F WCI  22
PLATTEVILLE    CLOUDY    27  26  96 SE10      29.79F WCI  17
$$

WIZ056-057-062-063-064-067-068-111500-
SOUTH CENTRAL WISCONSIN

CITY           SKY/WX    TMP DP  RH WIND       PRES   REMARKS
REEDSBURG      CLOUDY    25  23  93 SE7       29.79F WCI  17
BARABOO/DELLS  CLOUDY    24  22  89 S8        29.79F WCI  16
LONE ROCK      CLOUDY    23  21  92 E8        29.81F FOG     WCI  14
MINERAL POINT  MOCLDY    28  28 100 SE10      29.78F WCI  19
MADISON        CLOUDY    25  21  85 S9        29.83F WCI  15
MIDDLETON      CLOUDY    26  23  86 S7        29.83F WCI  19
WATERTOWN      CLOUDY    24  23  98 S6        29.87F WCI  17
MONROE         CLOUDY    27  23  86 S10       29.82F WCI  17
JANESVILLE     CLOUDY    28  23  80 S6        29.86F WCI  22
$$

WIZ051-052-058>065-066-070>072-111500-
SOUTHEAST WISCONSIN

CITY           SKY/WX    TMP DP  RH WIND       PRES   REMARKS
MILWAUKEE      CLOUDY    26  23  88 S7        29.91F WCI  18
WAUKESHA       CLOUDY    21  19  93 S6        29.90F FOG     WCI  14
MILWAUKEE/TIMM LGT SNOW  25  19  80 S8        29.91F WCI  16
RACINE         CLOUDY    26  23  88 S7        29.93F WCI  18
BURLINGTON     CLOUDY    33  33  99 CALM      29.90F
KENOSHA        CLOUDY    26  22  84 S7        29.91F WCI  18
FOND DU LAC    CLOUDY    24  18  77 S10       29.86F WCI  14
SHEBOYGAN      CLOUDY    23  21  92 S9        29.89F WCI  13
WEST BEND      CLOUDY    23  21  93 S6        29.88F WCI  16
JUNEAU         CLOUDY    22  20  91 SE8       29.87F WCI  13
$$

LSZ147-162-111500-
LAKE SUPERIOR

STATION/POSITION TIME  TEMP    WIND        PRES    WAVE
                       AIR SEA DIR/SP/G            HT/PER
                 (UTC) (F)     (DEG/KT/KT) (MB)    (FT/S)
DEVILS ISLAND    1400   23     190/  7/  8 1008.4F
SAXON HARBOR     1330   22                 1007.1F
$$

LMZ867-665-643>646-111500-
LAKE MICHIGAN

STATION/POSITION TIME  TEMP    WIND        PRES    WAVE
                       AIR SEA DIR/SP/G            HT/PER
                 (UTC) (F)     (DEG/KT/KT) (MB)    (FT/S)
NORTHPORT PIER   1340   21      CALM  /  2 1012.5F
KEWAUNEE LAKESHO 1342   22     230/  7/ 11 1012.0F
SHEBOYGAN LAKESH 1400   25     200/ 12/ 13 1013.2F
PORT WASHINGTON  1340   25     210/  9/ 11 1013.9F
MILWAUKEE LAKESH 1350   26     190/  9/ 11   N/A
KENOSHA   LAKESH 1400   27     200/  9/ 11 1013.2
$$

TC  - TEMPERATURE IN CELSIUS
VSB - VISIBILITY IN STATUTE MILES
WCI - WIND CHILL INDEX
HX  - HEAT INDEX





USA.gov is the U.S. government's official web portal to all federal, state and local government web resources and services.